Regional Weather Roundup
Issued by NWS

Home | Current Version | Previous Version | Text Only | Print | Product List | Glossary On
Versions: 1 2 3 4 5 6 7 8 9 10 11 12 13 14 15 16 17 18 19 20 21 22 23 24 25 26 27 28 29 30 31 32 33 34 35 36 37 38 39 40 41 42 43 44 45 46 47 48 49 50
000
ASMX46 KSGX 282211
RWRMX

MEXICAN WEATHER ROUNDUP
NATIONAL WEATHER SERVICE SAN DIEGO CA
300 PM PDT SAT MAR 28 2015

BAJA CALIFORNIA

CITY           SKY/WX    TMP DP  RH WIND       PRES   REMARKS
ENSENADA NW      N/A     66  32  27 W12       30.01F
LA PAZ         SUNNY     93  36  13 N12       29.92F
LORETO         SUNNY     82  59  44 NE9       29.90F
MEXICALI       SUNNY     73  30  20 E5        29.91F
S.J. DEL CABO  SUNNY     88  37  16 E23       29.94F
TIJUANA        MOSUNNY   75  50  41 W12       30.05F

NORTHWESTERN MEXICO

CITY           SKY/WX    TMP DP  RH WIND       PRES   REMARKS
CHIHUAHUA      SUNNY     84  25  11 CALM      30.14F
CULIACAN       SUNNY     90  72  55 SW12      29.93F HX  96
GUAYMAS        SUNNY     86  59  39 S16       29.85F
HERMOSILLO     SUNNY    102  25   6 S7        29.92F HX  95
JUAREZ         SUNNY     88  27  11 W13       30.04F
LOS MOCHIS     SUNNY     86  50  28 SW13      29.91F
OBREGON        SUNNY     93  48  21 W9        29.86F

NORTHEASTERN MEXICO

CITY           SKY/WX    TMP DP  RH WIND       PRES   REMARKS
MATAMOROS      SUNNY     77  57  50 SE21      30.13
MONCLOVA         N/A    N/A N/A N/A MISG        N/A
MONTERREY      SUNNY     81  50  34 E13       30.04F
NUEVO LAREDO   SUNNY     86  52  30 S14       30.03F
PIEDRAS NEGRAS SUNNY     86  48  26 SE12      30.01F
REYNOSA        SUNNY     79  45  29 SE9G21    30.06
SALTILLO       SUNNY     82  57  42 N9        30.20S
TORREON        SUNNY     81  30  16 NW6       30.13F
VICTORIA       MOSUNNY   81  48  32 S17       30.05F

WESTERN MEXICO

CITY           SKY/WX    TMP DP  RH WIND       PRES   REMARKS
AGUASCALIENTES MOSUNNY   70  34  26 NE12      30.23F
COLIMA         MOSUNNY   82  52  34 SW12      30.02F
DURANGO        MOSUNNY   75  25  15 NW7       30.21F
GUADALAJARA    PTSUNNY   82  39  21 SE5       30.14F
MANZANILLO     SUNNY     79  70  73 S9        29.91F
MAZATLAN       SUNNY     81  63  54 S13       29.91F
PTO. VALLARTA  MOSUNNY   81  70  69 SW13      29.94F
TEPIC          MOSUNNY   82  68  61 N12       30.05F
URUAPAN        MOSUNNY   77  55  47 S12       30.19F
ZACATECAS      PTSUNNY   61  37  41 E12       30.31R

CENTRAL MEXICO

CITY           SKY/WX    TMP DP  RH WIND       PRES   REMARKS
CUERNAVACA     PTSUNNY   82  43  24 CALM      30.12F
LEON           PTSUNNY   77  45  31 S7        30.27F
MEXICO CITY    CLOUDY    57  48  72 NE13      30.33  THUNDER
MORELIA        PTSUNNY   70  54  56 S13       30.22
POZA RICA      MOSUNNY   81  55  41 E7        30.14F
PUEBLA         LGT RAIN  63  50  63 NW2       30.32F
QUERETARO      PTSUNNY   72  43  35 NW7       30.27F
S. LUIS POTOSI PTSUNNY   73  39  29 E9        30.21F
TAMPICO        SUNNY     75  52  43 SE12      30.12F
TOLUCA         PTSUNNY   70  39  32 SE20      30.36R
VERACRUZ       PTSUNNY   75  59  57 E12       30.12F

SOUTHERN MEXICO

CITY           SKY/WX    TMP DP  RH WIND       PRES   REMARKS
ACAPULCO       PTSUNNY   84  73  70 W9        29.90S
B. DE HUATULCO MOSUNNY   90  79  70 SW15      29.93S HX 105
MINATITLAN     CLOUDY    73  68  83 N14       30.08F
OAXACA         PTSUNNY   75  50  41 W6        30.19F
PTO. ESCONDIDO MOSUNNY   84  75  74 SW12      30.05F
TAPACHULA      SUNNY     88  75  66 W10       29.89S HX  97
TUX. GUTIERREZ MOSUNNY   79  59  50 NW16      30.05F
VILLAHERMOSA   CLOUDY    75  68  78 CALM      30.13F
ZIHUATANEJO    PTSUNNY   86  73  66 SW9       29.92F

YUCATAN PENINSULA

CITY           SKY/WX    TMP DP  RH WIND       PRES   REMARKS
CAMPECHE       PTSUNNY   82  63  51 N12G23    30.02F
CANCUN         PTSUNNY   79  61  53 NE13      30.09S
CHETUMAL       PTSUNNY   81  73  78 NE6       30.02F
C. DEL CARMEN  CLOUDY    79  64  61 NE12      30.09F
COZUMEL        PTSUNNY   75  64  69 NE16      30.09S
MERIDA         CLOUDY    79  57  47 NE14      30.10S

$$




USA.gov is the U.S. government's official web portal to all federal, state and local government web resources and services.